Location: Pedholt
(56.0260°N, 10.2097°E)
Time: 20:49:34
(UTC+00:00)

Tiros 1 - Pass Details

Date: 05 August 2021
Orbit: 630 x 663 km, 48.4° (Epoch: 19 September)

Event Time Altitude Azimuth Distance (km) Brightness Sun altitude
Rises 16:24:36 0° 220° (SW) 2,985 11.2 22.3°
Reaches altitude 10° 16:27:23 10° 205° (SSW) 2,071 10.2 21.9°
Maximum altitude 16:30:59 22° 156° (SSE) 1,448 8.9 21.4°
Drops below altitude 10° 16:34:35 10° 107° (ESE) 2,064 9.3 20.9°
Sets 16:37:21 0° 92° (E) 2,971 9.9 20.5°
